This is the latest recevied weather packets stored in our database for station/object DD6UBW. If no packets are shown the sender has not sent any weather packets the latest 10 day(s).
| Time | Temp. | Humidity | Pressure | Rain* | Wind** | Luminosity | Snow |
|---|---|---|---|---|---|---|---|
| 1788382800 | 13.89° C | 86% | 1017.6 hPa | 0 mm | - | - | - |
| 1788381000 | 14.44° C | 85% | 1017.6 hPa | 0 mm | - | - | - |
| 1788379219 | 14.44° C | 85% | 1017.6 hPa | 0 mm | - | - | - |
| 1788377401 | 15° C | 85% | 1017.6 hPa | 0 mm | - | - | - |
| 1788375601 | 15.56° C | 83% | 1017.6 hPa | 0 mm | - | - | - |
| 1788373801 | 15.56° C | 80% | 1017.6 hPa | 0 mm | - | - | - |
| 1788372000 | 16.67° C | 77% | 1017.6 hPa | 0 mm | - | - | - |
| 1788370200 | 18.33° C | 72% | 1017.6 hPa | 0 mm | - | - | - |
| 1788368400 | 18.89° C | 70% | 1017.6 hPa | 0 mm | - | - | - |
| 1788366601 | 21.11° C | 57% | 1017.6 hPa | 0 mm | - | - | - |
| 1788364801 | 21.67° C | 56% | 1017.6 hPa | 0 mm | - | - | - |
| 1788363002 | 22.22° C | 52% | 1017.6 hPa | 0 mm | - | - | - |
| 1788361201 | 22.22° C | 53% | 1017.6 hPa | 0 mm | - | - | - |
| 1788359400 | 21.67° C | 54% | 1017.6 hPa | 0 mm | - | - | - |
| 1788357601 | 21.67° C | 52% | 1018.6 hPa | 0 mm | - | - | - |
| 1788355801 | 22.22° C | 50% | 1018.6 hPa | 0 mm | - | - | - |
| 1788354000 | 21.67° C | 51% | 1018.6 hPa | 0 mm | - | - | - |
| 1788352201 | 21.67° C | 52% | 1018.6 hPa | 0 mm | - | - | - |
| 1788350403 | 22.22° C | 53% | 1018.6 hPa | 0 mm | - | - | - |
| 1788348601 | 21.67° C | 54% | 1018.6 hPa | 0 mm | - | - | - |
| 1788346800 | 20.56° C | 57% | 1018.6 hPa | 0 mm | - | - | - |
| 1788345000 | 20.56° C | 58% | 1019.6 hPa | 0 mm | - | - | - |
| 1788343201 | 20° C | 60% | 1019.6 hPa | 0 mm | - | - | - |
| 1788341401 | 19.44° C | 62% | 1019.6 hPa | 0 mm | - | - | - |
| 1788339601 | 20° C | 62% | 1019.6 hPa | 0 mm | - | - | - |
* Rain since midnight (hover to see other rain measurements)
** Current wind speed in m/s (hover to see current wind gust speed)